#timestamp,LO_Frequency,Hit,StdDev 
1569916815.4,286047005.7,N
1569916835.3,286047005.1,N
1569916855.1,286047005.1,N
1569916856.0,286047005.1,N
1569916875.8,286047004.6,N
1569916895.7,286047007.4,N
1569916915.5,286047008.7,N
1569916935.3,286047008.8,N
1569916955.2,286047008.5,N
1569916975.0,286047008.6,N
1569916975.9,286047008.6,N
1569916995.8,286047008.6,N
1569917015.6,286047010.4,N
1569917035.4,286047009.3,N
1569917055.3,286047012.0,Y
1569917075.1,286047006.5,P
1569917095.9,286047005.2,P
1569917115.7,286047005.6,P
1569917135.5,286047006.0,Y
1569917155.4,286046998.8,P
1569917175.2,286047002.3,N
1569917195.1,286047001.0,N
1569917196.0,286047001.0,N
1569917215.8,286047002.6,N
1569917235.6,286047000.3,N
1569917255.5,286046999.1,N
1569917275.3,286046997.4,N
1569917295.1,286046997.1,N
1569917315.9,286046997.8,N
1569917335.7,286046997.6,N
1569917355.6,286046998.0,N
1569917375.4,286046997.3,N
1569917395.2,286046997.2,N
1569917415.1,286046997.7,N
1569917416.0,286046997.7,N
1569917435.8,286046997.1,N
1569917455.6,286046997.2,N
1569917475.5,286046997.2,N
1569917495.3,286046997.6,N
1569917515.2,286046996.0,N
1569917535.9,286046995.4,N
1569917555.7,286046996.3,N
1569917575.6,286046993.7,N
1569917595.4,286046995.7,N
1569917615.2,286046997.2,N
1569917635.1,286046999.3,N
1569917636.0,286046999.3,N
1569917655.8,286046999.0,N
1569917675.7,286047004.4,N
1569917695.5,286047002.1,N
1569917715.3,286047003.8,N
1569917735.2,286047003.8,N
1569917755.0,286047003.7,N
1569917755.9,286047003.7,N
1569917775.7,286047003.0,N
1569917795.6,286047004.1,N
1569917815.4,286047003.9,N
1569917835.3,286047004.2,N
1569917855.1,286047003.5,N
1569917856.0,286047003.5,N
1569917875.8,286047004.2,N
1569917895.7,286047003.9,N
1569917915.5,286047003.0,N
1569917935.3,286047007.0,N
1569917955.2,286047006.5,N
1569917975.0,286047007.3,N
1569917975.9,286047007.3,N
1569917995.8,286047006.8,N
1569918015.6,286047006.4,N
1569918035.4,286047009.2,N
1569918055.3,286047005.5,N
1569918075.1,286047004.4,N
1569918095.9,286047001.4,N
1569918115.7,286047003.2,N
1569918135.5,286047003.9,N
1569918155.4,286047002.4,N
1569918175.2,286047000.4,N
1569918195.0,286046999.5,N
1569918195.9,286046999.5,N
1569918215.8,286046997.7,N
1569918235.6,286046995.1,N
1569918255.5,286046997.7,N
1569918275.3,286046997.8,N
1569918295.1,286046997.9,N
1569918315.9,286046997.9,N
1569918335.7,286046999.6,N
1569918355.5,286046997.1,N
1569918375.4,286046995.3,N
1569918395.2,286046997.0,N
1569918415.1,286046995.4,N
1569918416.0,286046995.4,N
1569918435.8,286046997.7,N
1569918455.6,286046997.2,N
1569918475.5,286046999.6,N
1569918495.3,286046997.4,N
1569918515.1,286046998.3,N
1569918535.9,286046998.6,N
1569918555.7,286046998.7,N
1569918575.6,286046994.9,N
1569918595.4,286046997.5,N
1569918615.2,286046999.2,N
1569918635.1,286046998.9,N
1569918636.0,286046998.9,N
1569918655.8,286046999.0,N
1569918675.7,286046996.6,N
1569918695.5,286046995.4,N
1569918715.3,286046994.8,Y
1569918735.2,286046994.0,P
1569918755.0,286046993.5,P
1569918755.9,286046993.5,P
1569918775.8,286046991.7,Y
1569918795.6,286046996.8,P
1569918815.4,286046999.1,N
1569918835.3,286046998.9,N
1569918855.1,286046997.2,N
1569918875.8,286046997.3,N
1569918895.7,286046997.5,N
1569918915.5,286046997.1,N
1569918935.4,286046996.8,N
1569918955.2,286046999.5,N
1569918975.0,286046999.1,N
1569918975.9,286046999.1,N
1569918995.8,286046997.3,N
1569919015.6,286046998.6,N
1569919035.4,286047000.5,N
1569919055.3,286046998.1,N
1569919075.1,286046998.2,N
1569919095.9,286046998.5,N
1569919115.7,286047001.2,N
1569919135.5,286046998.5,N
1569919155.4,286046998.4,N
1569919175.2,286047000.7,N
1569919195.1,286047002.4,N
1569919196.0,286047002.4,N
1569919215.8,286047000.7,N
1569919235.6,286047000.8,N
1569919255.5,286047000.7,N
1569919275.3,286047005.7,Y
1569919295.1,286047007.0,P
1569919315.9,286047005.5,N
1569919335.7,286047003.7,N
1569919355.6,286047003.0,N
1569919375.4,286047005.5,N
1569919395.2,286047002.5,N
1569919415.1,286047001.8,N
1569919416.0,286047001.8,N
1569919435.8,286047004.0,N
1569919455.6,286047000.3,N
1569919475.5,286046998.3,N
1569919495.3,286046999.5,N
1569919515.2,286046997.3,N
1569919535.9,286046996.2,N
1569919555.7,286046997.5,N
1569919575.6,286046994.9,N
1569919595.4,286046996.5,N
1569919615.2,286046998.4,N
1569919635.1,286047000.7,N
1569919636.0,286047000.7,N
1569919655.8,286047000.0,N
1569919675.7,286047000.7,N
1569919695.5,286047001.0,N
1569919715.3,286047000.7,N
1569919735.2,286046999.9,N
1569919755.9,286047001.0,N
1569919775.7,286047002.7,N
1569919795.6,286047000.0,N
1569919815.4,286047000.7,N
1569919835.3,286047001.3,N
1569919855.1,286047004.4,N
1569919856.0,286047004.4,N
1569919875.8,286047002.5,N
1569919895.7,286047000.7,N
1569919915.5,286046998.3,N
1569919935.3,286047001.2,N
1569919955.2,286047002.0,N
1569919975.0,286047002.2,N
1569919975.9,286047002.2,N
1569919995.8,286047004.4,N
1569920015.6,286047005.6,N
1569920035.4,286047006.0,N
1569920055.3,286047005.7,N
1569920075.1,286047007.0,N
1569920095.8,286047006.3,N
1569920115.7,286047005.0,N
1569920135.5,286047004.8,N
1569920155.4,286047002.9,N
1569920175.2,286047005.7,N
1569920195.0,286047005.3,N
1569920195.9,286047005.3,N
1569920215.8,286047007.3,Y
1569920235.6,286047003.2,P
1569920255.4,286047003.3,P
1569920275.3,286047003.4,P
1569920295.1,286047004.3,Y
1569920315.9,286047000.5,P
1569920335.7,286046999.9,N
1569920355.5,286047000.2,N
1569920375.4,286047002.8,N
1569920395.2,286047000.9,N
